Torna al catalogo

STARLINK-36602

AttivoComunicazioniVLEO
NORAD 67849·PAYLOAD·🇺🇸 United States

Lanciato Feb 16, 2026 da Vandenberg Space Force Base

Loading…

Prossimi Passaggi (prossime 24 ore)

TLE

AggiornatoSource: CelesTrak SupGP

Epoca: Sep 15, 2026, 03:56 UTC

1 67849C 26033AE  26258.16437500 -.00033060  00000+0 -11972-2 0  2580
2 67849  42.9997 277.4386 0001302 267.9099 201.6664 15.27600331    15

Traccia STARLINK-36602 in tempo reale con AllMySat

Download on the App Store